TimeEDT,TemperatureF,Dew PointF,Humidity,Sea Level PressureIn,VisibilityMPH,Wind Direction,Wind SpeedMPH,Gust SpeedMPH,PrecipitationIn,Events,Conditions,WindDirDegrees,DateUTC
12:51 AM,71.1,59.0,66,29.99,10.0,NNE,6.9,-,N/A,,Overcast,20,2013-07-22 04:51:00
1:51 AM,69.1,57.0,65,29.99,10.0,North,4.6,-,N/A,,Overcast,360,2013-07-22 05:51:00
2:51 AM,66.9,55.9,68,29.99,10.0,NNE,5.8,-,0.00,,Mostly Cloudy,20,2013-07-22 06:51:00
3:51 AM,66.0,54.0,65,29.98,10.0,North,6.9,-,N/A,,Mostly Cloudy,10,2013-07-22 07:51:00
4:51 AM,64.9,54.0,68,30.00,10.0,NNW,10.4,-,N/A,,Mostly Cloudy,340,2013-07-22 08:51:00
5:51 AM,64.9,55.9,73,30.01,10.0,North,6.9,-,N/A,,Overcast,10,2013-07-22 09:51:00
6:51 AM,64.0,55.9,75,30.01,10.0,North,5.8,-,N/A,,Mostly Cloudy,10,2013-07-22 10:51:00
7:51 AM,64.9,57.0,75,30.01,10.0,North,5.8,-,N/A,,Mostly Cloudy,360,2013-07-22 11:51:00
8:51 AM,66.9,59.0,76,30.01,10.0,North,5.8,-,N/A,,Mostly Cloudy,350,2013-07-22 12:51:00
9:51 AM,69.1,60.1,73,30.00,10.0,NNW,5.8,-,N/A,,Overcast,340,2013-07-22 13:51:00
10:51 AM,73.0,62.1,68,29.99,10.0,Calm,Calm,-,N/A,,Mostly Cloudy,0,2013-07-22 14:51:00
11:51 AM,75.9,63.0,64,29.97,10.0,Calm,Calm,-,N/A,,Mostly Cloudy,0,2013-07-22 15:51:00
12:51 PM,80.1,63.0,56,29.95,10.0,Calm,Calm,-,N/A,,Mostly Cloudy,0,2013-07-22 16:51:00
1:51 PM,82.0,61.0,49,29.93,10.0,Calm,Calm,-,N/A,,Mostly Cloudy,0,2013-07-22 17:51:00
2:51 PM,84.0,62.1,47,29.90,10.0,South,6.9,-,N/A,,Mostly Cloudy,170,2013-07-22 18:51:00
3:51 PM,87.1,61.0,41,29.88,10.0,SSW,11.5,20.7,N/A,,Mostly Cloudy,200,2013-07-22 19:51:00
4:51 PM,82.9,64.9,54,29.86,10.0,ESE,8.1,-,N/A,,Mostly Cloudy,120,2013-07-22 20:51:00
5:51 PM,82.9,66.9,58,29.84,10.0,ESE,5.8,-,N/A,,Mostly Cloudy,120,2013-07-22 21:51:00
6:51 PM,82.0,68.0,62,29.84,10.0,SSE,3.5,-,N/A,,Overcast,150,2013-07-22 22:51:00
7:51 PM,81.0,66.9,62,29.83,10.0,SE,3.5,-,N/A,,Overcast,130,2013-07-22 23:51:00
8:51 PM,80.1,68.0,67,29.84,10.0,ESE,4.6,-,N/A,,Overcast,110,2013-07-23 00:51:00
9:51 PM,75.0,69.1,82,29.86,6.0,SSE,6.9,19.6,0.01,Rain,Light Rain,150,2013-07-23 01:51:00
10:51 PM,72.0,69.1,91,29.83,9.0,Calm,Calm,-,0.02,Rain,Light Rain,0,2013-07-23 02:51:00
11:25 PM,71.6,69.8,94,29.83,8.0,Calm,Calm,-,0.00,,Overcast,0,2013-07-23 03:25:00
11:51 PM,73.0,69.1,87,29.83,8.0,South,4.6,-,0.00,,Overcast,180,2013-07-23 03:51:00